カタログに戻る

KUIPER-00252

運用中通信LEO
NORAD 67157·PAYLOAD·🇺🇸 United States

打ち上げ Dec 15, 2025 から Cape Canaveral Space Force Station

Loading…

次のパス (今後24時間)

TLE

最新Source: CelesTrak SupGP

元期: Sep 14, 2026, 22:59 UTC

1 67157C 25301AA  26257.95806713 -.00033136  00000+0 -43355-2 0  2574
2 67157  51.8997 303.6731 0000459  89.7234 130.5294 14.79984929    18

AllMySatでKUIPER-00252をリアルタイム追跡

Download on the App Store